Hourly Weather Roundup
Issued by NWS Central Illinois

Home | Current Version | Previous Version | Text Only | Print | Product List | Glossary On
Versions: 1 2 3 4 5 6 7 8 9 10 11 12 13 14 15 16 17 18 19 20 21 22 23 24 25 26 27 28 29 30 31 32 33 34 35 36 37 38 39 40 41 42 43 44 45 46 47 48 49 50
000
NZUS43 KILX 240110
HWRILX

AREA WEATHER ROUNDUP
NATIONAL WEATHER SERVICE, LINCOLN IL
800 PM CDT WED JUL 23 2014


CITY           SKY/WX    TMP DP  RH WIND       PRES   REMARKS
BLOOMINGTON    CLEAR     32  32 100 NE7       30.13R WCI  26
CHAMPAIGN      CLEAR     68  50  52 NE13G23   30.11R
DECATUR        CLEAR     72  57  60 NE12      30.11R
FLORA          CLEAR     72  59  63 N10       30.05R
GALESBURG      CLEAR     72  60  65 N6        30.13R
JACKSONVILLE   PTCLDY    75  61  61 N5        30.12R
LACON          CLEAR     72  55  55 CALM      30.11R
LAWRENCEVILLE  CLOUDY    75  63  66 N20       30.03R
LITCHFIELD     CLEAR     73  59  62 N9        30.10R
$$


CITY           SKY/WX    TMP DP  RH WIND       PRES   REMARKS
LINCOLN        CLEAR     71  58  62 NE7       30.08S
MACOMB         CLEAR     71  60  67 N5        30.14S
MATTOON        CLEAR     68  53  58 N15       30.08R
MT CARMEL AP   CLOUDY    77  70  78 N6        30.02S
OLNEY-NOBLE AP CLEAR     72  61  68 N9        30.05R
PARIS          CLEAR     67  55  63 N6        30.09R
PEORIA         CLEAR     76  55  48 N6        30.11S
PONTIAC        CLEAR     70  55  60 E7        30.12R
RANTOUL        CLEAR     69  49  49 NE10      30.12S
ROBINSON       PTCLDY    73  59  62 N5G17     30.05R
SPRINGFIELD    CLEAR     74  59  59 NE7       30.10R
TAYLORVILLE    CLEAR     70  57  64 NE9       30.10R
$$

...REGIONAL REPORTS...


CITY           SKY/WX    TMP DP  RH WIND       PRES   REMARKS
CHICAGO O`HARE PTCLDY    65  49  56 N12       30.14F
KANKAKEE       CLEAR     64  54  70 N10G20    30.12F
MOLINE         CLEAR     75  54  47 NE7       30.12R
MOUNT VERNON   CLEAR     75  63  64 N7        30.05R
PITTSFIELD     CLEAR     74  58  57 NE5       30.13R
QUINCY         MOCLDY    74  59  59 N7        30.13R
ROCKFORD       PTCLDY    72  54  53 E12       30.15R
$$


CITY           SKY/WX    TMP DP  RH WIND       PRES   REMARKS
BURLINGTON     CLEAR     74  58  57 N10       30.13R
CEDAR RAPIDS   CLEAR     74  55  51 N7        30.14R
DES MOINES     PTCLDY    79  56  45 E9        30.14S HX  80
KIRKSVILLE     CLEAR     73  60  63 NE7       30.15R
OTTUMWA        PTCLDY    75  58  55 NE5       30.15R
ST LOUIS       PTCLDY    79  62  56 N13       30.08R HX  80
$$


CITY           SKY/WX    TMP DP  RH WIND       PRES   REMARKS
TERRE HAUTE    CLEAR     69  56  62 N10       30.06R
EVANSVILLE     CLOUDY    75  68  78 N14       30.01R
INDIANAPOLIS   MOCLDY    71  61  70 N14       30.03R
LAFAYETTE      CLEAR     65  50  58 N12G23    30.08S
MADISON        PTCLDY    71  55  56 NE7       30.14S
MILWAUKEE      PTCLDY    61  51  70 N8        30.16F
$$




USA.gov is the U.S. government's official web portal to all federal, state and local government web resources and services.